GW3736 Weather Reports


time (UTC)temp
F
wind
direction
speed
knots
gust
knots
rain 1hr
in
rain 24hr
in
rain mn
in
humidity
%
barometer
mb
20260831112532 70 156 0.0 0.9 0.00 0.32 0.00 88 1012.7
20260831111527 70 156 0.0 0.9 0.00 0.32 0.00 88 1012.5
20260831110525 70 0.0 0.0 0.00 0.32 0.00 87 1012.5
20260831105520 70 0.0 0.0 0.00 0.32 0.00 87 1012.6
20260831104518 70 0.0 0.0 0.00 0.33 0.00 87 1012.6
20260831103532 70 0.0 0.0 0.00 0.33 0.00 87 1012.4
20260831102528 70 0.0 0.0 0.00 0.34 0.00 87 1012.4
20260831101525 70 156 0.9 1.7 0.00 0.34 0.00 87 1012.4
20260831100523 70 156 0.0 0.9 0.00 0.35 0.00 87 1012.4
20260831095517 70 0.0 0.0 0.00 0.35 0.00 87 1012.4
20260831094553 70 156 0.9 1.7 0.00 0.37 0.00 87 1012.3
20260831093529 70 156 0.0 0.9 0.00 0.37 0.00 87 1012.5
20260831092547 70 156 0.0 0.9 0.00 0.37 0.00 86 1012.5
20260831091522 70 0.0 0.0 0.00 0.37 0.00 86 1012.6
20260831090518 70 0.0 0.0 0.00 0.37 0.00 86 1012.5
20260831085534 70 0.0 0.0 0.00 0.37 0.00 86 1012.3
20260831084530 70 0.0 0.0 0.00 0.37 0.00 86 1012.2
20260831083548 70 0.0 0.0 0.00 0.37 0.00 86 1012.0
20260831082524 70 0.0 0.0 0.00 0.38 0.00 86 1012.1
20260831081601 70 0.0 0.0 0.00 0.38 0.00 86 1012.2
20260831080535 70 156 0.0 0.9 0.00 0.38 0.00 86 1012.2
20260831075531 70 156 0.0 0.9 0.00 0.38 0.00 86 1012.2
20260831074527 71 0.0 0.0 0.00 0.38 0.00 86 1012.3
20260831073543 71 0.0 0.0 0.00 0.38 0.00 86 1012.4
20260831072519 71 0.0 0.0 0.00 0.38 0.00 86 1012.5
20260831071517 71 0.0 0.0 0.00 0.38 0.00 86 1012.5
20260831070532 71 156 0.0 0.9 0.00 0.38 0.00 86 1012.7
20260831065528 71 156 0.0 1.7 0.00 0.38 0.00 86 1012.7
20260831064524 71 156 0.0 1.7 0.00 0.38 0.00 86 1012.6
20260831063520 71 156 0.9 1.7 0.00 0.38 0.00 86 1012.7
20260831062516 71 156 0.9 1.7 0.00 0.38 0.00 86 1012.8
20260831061532 71 156 1.7 2.6 0.00 0.38 0.00 86 1012.7
20260831060528 71 155 0.9 1.7 0.00 0.38 0.00 86 1012.8
20260831055606 71 155 0.0 1.7 0.00 0.38 0.00 86 1013.0
20260831054520 71 0.0 0.0 0.00 0.38 0.00 86 1013.1
20260831053557 71 155 0.0 0.9 0.00 0.38 0.00 86 1013.1
20260831052533 71 154 0.0 1.7 0.00 0.38 0.00 86 1013.1
20260831051531 71 156 0.9 1.7 0.00 0.38 0.00 86 1013.0
20260831050525 71 158 0.9 3.5 0.00 0.38 0.00 86 1013.1
20260831045522 71 156 0.0 1.7 0.00 0.38 0.00 86 1013.1
20260831044517 71 156 0.9 2.6 0.00 0.38 0.00 86 1013.1
20260831043533 71 155 0.9 1.7 0.00 0.38 0.00 86 1013.1
20260831042529 72 149 0.0 1.7 0.00 0.38 0.00 86 1013.0
20260831041606 72 138 0.9 1.7 0.00 0.38 0.00 87 1013.1
20260831040520 72 130 0.9 2.6 0.00 0.38 0.00 87 1013.0
20260831035516 72 132 1.7 5.2 0.00 0.38 0.38 87 1013.0
20260831034533 72 130 1.7 3.5 0.00 0.38 0.38 87 1013.0
20260831033528 72 129 1.7 3.5 0.00 0.38 0.38 87 1013.0
20260831032524 72 130 2.6 3.5 0.00 0.38 0.38 87 1013.1
20260831031521 72 131 2.6 5.2 0.00 0.38 0.38 87 1013.1
20260831030517 72 129 2.6 6.1 0.00 0.38 0.38 87 1013.0
20260831025533 72 130 3.5 7.0 0.00 0.38 0.38 87 1012.9
20260831024530 72 129 2.6 6.1 0.00 0.38 0.38 88 1013.1
20260831023525 72 127 2.6 5.2 0.00 0.38 0.38 88 1013.0
20260831022521 72 125 3.5 7.8 0.00 0.38 0.38 88 1013.0
20260831021517 72 127 3.5 7.8 0.00 0.38 0.38 88 1013.0
20260831020534 71 128 4.3 7.8 0.00 0.38 0.38 88 1012.9
20260831015530 71 127 3.5 7.0 0.00 0.38 0.38 88 1013.0
20260831014526 71 127 3.5 7.0 0.00 0.38 0.38 88 1013.0
20260831013542 71 127 3.5 7.8 0.00 0.38 0.38 88 1012.9
20260831012519 71 127 3.5 7.8 0.00 0.38 0.38 88 1013.0
20260831011534 71 128 3.5 5.2 0.00 0.38 0.38 88 1013.0
20260831010530 71 123 3.5 7.0 0.00 0.38 0.38 88 1013.0
20260831005527 71 125 3.5 7.8 0.00 0.38 0.38 88 1013.0
20260831004524 71 124 4.3 8.7 0.00 0.38 0.38 88 1012.9
20260831003520 71 129 3.5 7.0 0.00 0.38 0.38 88 1012.7
20260831002535 71 127 3.5 8.7 0.00 0.38 0.38 88 1012.6
20260831001531 71 128 4.3 8.7 0.00 0.38 0.38 87 1012.7
20260831000549 71 129 3.5 8.7 0.00 0.38 0.38 87 1012.7
20260830235523 71 128 3.5 7.0 0.00 0.38 0.38 87 1012.8
20260830234520 71 127 4.3 8.7 0.00 0.38 0.38 87 1013.1
20260830233516 71 130 2.6 6.1 0.00 0.38 0.38 87 1013.4
20260830232532 71 129 3.5 7.0 0.00 0.38 0.38 87 1013.7
20260830231528 71 129 1.7 5.2 0.00 0.38 0.38 87 1013.9
20260830230524 71 128 1.7 3.5 0.00 0.38 0.38 87 1014.0
20260830225541 71 126 2.6 5.2 0.00 0.38 0.38 87 1014.1
20260830224517 71 127 2.6 6.1 0.01 0.38 0.38 86 1014.2
20260830223556 71 130 2.6 5.2 0.01 0.38 0.38 86 1014.0
20260830222529 71 129 3.5 6.1 0.01 0.38 0.38 86 1013.8
20260830221525 71 129 2.6 7.8 0.01 0.38 0.38 86 1013.7
20260830220521 72 133 1.7 3.5 0.02 0.38 0.38 86 1013.7
20260830215519 72 128 2.6 7.0 0.02 0.38 0.38 86 1013.6
20260830214533 72 130 1.7 3.5 0.01 0.37 0.37 86 1013.6
20260830213550 72 130 1.7 7.0 0.01 0.37 0.37 86 1013.3
20260830212525 72 129 2.6 5.2 0.01 0.37 0.37 86 1013.2
20260830211522 72 127 3.5 7.0 0.01 0.37 0.37 86 1013.2
20260830210518 72 128 3.5 6.1 0.00 0.37 0.37 86 1013.2
20260830205534 72 125 3.5 7.8 0.00 0.37 0.37 86 1013.3
20260830204550 72 127 3.5 7.0 0.00 0.37 0.37 86 1013.4
20260830203526 72 127 3.5 6.1 0.00 0.37 0.37 87 1013.4
20260830202522 71 130 2.6 6.1 0.00 0.37 0.37 87 1013.4
20260830201519 71 132 3.5 7.8 0.00 0.37 0.37 87 1013.3
20260830200535 71 135 3.5 7.8 0.00 0.37 0.37 87 1013.3
20260830195531 71 131 3.5 7.8 0.00 0.37 0.37 87 1013.3
20260830194529 71 129 1.7 5.2 0.00 0.37 0.37 87 1013.6
20260830193523 71 130 2.6 7.0 0.00 0.37 0.37 87 1013.6
20260830192521 70 130 2.6 6.1 0.01 0.37 0.37 87 1013.7
20260830191516 70 130 2.6 6.1 0.01 0.37 0.37 87 1013.8
20260830190552 71 129 0.9 3.5 0.01 0.37 0.37 87 1014.2
20260830185528 70 128 0.0 1.7 0.01 0.37 0.37 87 1014.3
20260830184544 70 127 2.6 6.1 0.01 0.37 0.37 87 1014.0
20260830183520 70 129 2.6 5.2 0.02 0.36 0.36 87 1013.9
20260830182536 70 131 1.7 5.2 0.02 0.36 0.36 87 1013.9
20260830181533 70 130 3.5 7.0 0.02 0.36 0.36 87 1014.0
20260830180528 70 131 2.6 6.1 0.02 0.36 0.36 87 1013.9
20260830175525 70 131 2.6 6.1 0.02 0.36 0.36 87 1013.9
20260830174521 69 133 3.5 7.8 0.04 0.36 0.36 87 1014.0
20260830173535 69 138 0.9 3.5 0.04 0.34 0.34 87 1014.5
20260830172529 69 142 2.6 5.2 0.04 0.34 0.34 87 1014.2
20260830171545 69 138 3.5 6.1 0.06 0.34 0.34 87 1014.4
20260830170518 69 138 0.9 1.7 0.06 0.34 0.34 87 1014.6
20260830165534 69 135 0.9 2.6 0.05 0.33 0.33 87 1014.7
20260830164550 69 138 2.6 5.2 0.04 0.31 0.31 87 1015.0
20260830163526 70 136 1.7 2.6 0.04 0.31 0.31 87 1015.4
20260830162522 70 140 1.7 2.6 0.03 0.30 0.30 87 1015.8
20260830161518 70 142 1.7 3.5 0.02 0.28 0.28 87 1015.7
20260830160555 70 136 0.9 1.7 0.03 0.28 0.28 87 1015.9
20260830155531 70 142 0.9 5.2 0.03 0.28 0.28 87 1015.9
20260830154527 70 139 0.9 2.6 0.03 0.28 0.28 87 1016.1
20260830153523 70 142 0.9 2.6 0.04 0.27 0.27 87 1016.2
20260830152519 70 141 0.9 2.6 0.04 0.27 0.27 87 1016.2
20260830151535 70 160 1.7 5.2 0.06 0.26 0.26 87 1016.3
20260830150532 69 168 1.7 6.1 0.06 0.26 0.26 87 1016.0
20260830145608 69 150 1.7 2.6 0.07 0.25 0.25 87 1015.8
20260830144546 69 143 0.9 3.5 0.07 0.24 0.24 87 1015.6
20260830143520 69 137 0.0 0.9 0.08 0.24 0.24 87 1015.7
20260830142516 69 136 0.0 0.9 0.09 0.23 0.23 87 1015.6
20260830141553 69 137 0.9 2.6 0.11 0.21 0.21 87 1015.6
20260830140529 70 163 1.7 3.5 0.10 0.19 0.19 87 1015.6
20260830135525 70 153 1.7 3.5 0.09 0.18 0.18 87 1015.3
20260830134521 71 134 1.7 7.8 0.09 0.17 0.17 87 1015.2
20260830133534 71 133 0.9 2.6 0.08 0.15 0.15 87 1015.2
20260830132610 71 131 1.7 2.6 0.07 0.13 0.13 87 1015.1
20260830131527 71 132 0.9 1.7 0.04 0.10 0.10 87 1015.2
20260830130545 71 132 0.9 1.7 0.03 0.09 0.09 87 1015.3
20260830125520 71 132 0.9 1.7 0.02 0.08 0.08 87 1015.4
20260830124536 71 131 1.7 2.6 0.02 0.07 0.07 87 1015.3
20260830123614 71 128 0.0 0.9 0.01 0.07 0.07 87 1015.5
20260830122527 71 130 0.0 0.9 0.01 0.07 0.07 87 1015.6
20260830121523 71 130 0.0 0.9 0.00 0.06 0.06 86 1015.4
20260830120539 71 130 0.0 0.9 0.00 0.06 0.06 86 1015.5
20260830115515 71 0.0 0.0 0.00 0.06 0.06 86 1014.8
20260830114552 71 131 0.0 1.7 0.00 0.06 0.06 86 1014.5
20260830113528 71 130 0.9 1.7 0.01 0.06 0.06 86 1014.3